Qianfan 05-12

operational
NORAD ID: 63170 Int'l Des: 2025-046 Owner: YUANX Country: CN Constellation: qianfan
LEOCIRCULARPOLAR

Über Qianfan 05-12

Beschreibung wird geladen...

Live-Position

3D-Globus wird geladen...

Nächste Überflüge

Höhenverlauf

Altitude vs Time

uPlot chart will show altitude changes over time

Zweizeiliger Elementsatz

1 63170U 25046M 25303.88992963 -.00000011 00000-0 -35529-4 0 9993
2 63170 88.9764 324.4875 0014074 246.0969 113.8708 13.50987376 41615
Epoch: 30. Okt. 2025 • Age: 12 hours

Aktueller Status

Höhe 1076.7 km
Geschwindigkeit 7.31 km/s
Subsatellitenpunkt 8.53°N, 136.99°E
Startdatum 11. März 2025
Alter 0.6 years
Typ internet

Technische Details

Klassifizierung Payload
Masse 267.00 kg
Trockenmasse 267.00 kg
Gesamtmasse 267.00 kg
Länge 0.30 m
Durchmesser 3.00 m
Spannweite 10.00 m
Form Box+pan
Hersteller GESIH
Bus-Typ Qianfan
Phasenstatus In Orbit
Besitzer/Staat YUANX/CN

Große Konstellationen

Loading constellations...